STARLINK-33751, 63512

Orbit data source: Space-Track

STARLINK-33751, 63512 is a payload satellite owned by SpaceX/Seattle (US) in LEO that was launched on Mon, 07 Apr 2025 UTC via an FALCON 9 launch vehicle from the Air Force Western Test Range (AFWTR). Payload-class satellites include a variety of spacecraft equipped with specific instruments for various scientific and technological missions. These include communications satellites like Starlink; space stations such as the ISS; scientific satellites like the Hubble; Earth observation satellites from companies like Planet Labs, Umbra, and HawkEye 360; GPS; miniature CubeSats for education and research; and military/defense satellites.

Loading next visibility...
Identifier
63512, 2025-071V
Orbit
LEO
Country
Flag of USUS
Related business
Manufacturer
SpaceX/Seattle
Mission
Operational Commercial Communications
Bus & Motor
STARLINK V2MO, Unknown motor
Mass
575 kg wet, ~530 kg dry
Launch date (UTC)
2025-04-07 (7 months ago)
Launch vehicle
FALCON 9
Launch site
Air Force Western Test Range (AFWTR)
Object type
Payload
Rocket body
Debris
Shape & HBR
Box + 2 Pan, 17.7 m
Radar Cross Section
36.964 m², Large (>1 m²)

Expand to show TLE details & history
Last TLE update: 1 day ago

TLE from 1 day ago
0 STARLINK-33751
1 63512U 25071V   25306.49619934 -.00007304  00000-0 -23488-3 0  9997
2 63512  53.1603  10.8537 0001024 108.8164 251.2948 15.30179077 33272
Epoch: 2025-11-02T11:54Z
TLE epoch observation values (Epoch: 2025-11-02T11:54:31.622Z)
Latitude
-0.00004°
Longitude
150.21082°
Altitude
476.402 km
Speed
7.629 km/s
True Right ascension
00h 43m 24s
True Declination
0° 00' 00"
Sunlit
Object was in full shadow at epoch
Visualization orbit readout
Latitude
Unknown
Longitude
Unknown
Altitude
Unknown
Speed
Unknown
Apparent Right ascension
Unknown
Apparent Declination
Unknown
Sunlit
N/A
Visualization observer readout
Local Sidereal Time
10:03:48
Azimuth
Unknown
Elevation
Unknown
Doppler factor
Unknown
Orbital elements
Apogee altitude
476.236 km
Perigee altitude
474.832 km
Semi-major axis
6,853.671 km
Eccentricity
0.0001
Inclination
53.1603°
RAAN
10.8537°
Arg. of periapsis
108.8164°
True anomaly
251.28369°
Mean anomaly
251.2948°
Eccentric anomaly
251.28924°
Mean motion
3.82524 °/min
Orbital period
94.11 mins
BSTAR
-0.00023488
Loading maneuver chart data...
Computing Atmospheric mass density...
Loading historical data...
Loading historical data...
Loading historical data...
Loading historical data...
Loading historical data...
Loading historical data...
Loading historical data...

Documentation

Showing up to 5 results
|